Location: Bridgewater
(44.3670°N, 64.5170°W)
Time: 05:40:34
(UTC-03:00)

Amateur Radio Satellites - All Passes

Search period start: 27 September 2016 05:10
Search period end: 28 September 2016 05:10
Location: Bridgewater, 44.3670°N, 64.5170°W

Satellite Date Start Highest point End Downlink Frequencies (MHz)
Time Altitude Azimuth
CUSAT 1 27 Sep 05:14:09 05:19:51 21° 58° (ENE) 05:25:03 437.405
YUBILEINY 27 Sep 05:15:32 05:23:36 39° 290° (WNW) 05:31:41 435.215
MOZHAYETS 4 27 Sep 05:22:56 05:26:11 19° 268° (W) 05:29:27
HORYU 2 27 Sep 05:28:36 05:31:23 16° 92° (E) 05:34:09 437.375
AIST 2 27 Sep 05:30:56 05:34:54 47° 310° (NW) 05:38:56 435.215
ITAMSAT 1 27 Sep 05:34:15 05:38:41 29° 296° (WNW) 05:43:07 435.822/435.867
PCSat 27 Sep 05:34:36 05:40:00 82° 119° (ESE) 05:45:28 145.827
Gurwin Techsat 1B 27 Sep 05:35:57 05:36:35 10° 307° (NW) 05:37:15 435.225
KKS-1 27 Sep 05:57:27 05:59:15 12° 271° (W) 06:01:04 437.445
AO-7 27 Sep 06:01:44 06:09:51 61° 295° (WNW) 06:17:57 29.400- 29.500
AIST 1 27 Sep 06:08:27 06:12:51 85° 99° (E) 06:17:16
AO-85 27 Sep 06:09:06 06:13:11 44° 49° (NE) 06:16:59 145.980
NOAA 18 27 Sep 06:21:43 06:22:33 10° 87° (E) 06:23:22 137.9125
DANDE 27 Sep 06:33:03 06:40:36 36° 67° (ENE) 06:47:54 436.750
CUBESAT XI-V 27 Sep 06:39:18 06:43:02 23° 267° (W) 06:46:48 437.345
GOMX 1 27 Sep 06:40:39 06:44:01 21° 92° (E) 06:47:16 467.674
BRITE-PL 27 Sep 06:45:22 06:50:13 59° 100° (E) 06:54:40 437.365/2234.400
RS-15 27 Sep 06:48:49 07:00:40 56° 247° (WSW) 07:12:15 29.354- 29.394
Cosmos 2504 27 Sep 06:49:26 06:54:48 21° 296° (WNW) 07:00:06 435.465 / 435.565
LilacSat-2 27 Sep 06:50:07 06:53:08 22° 94° (E) 06:56:08 437.200
CUSAT 1 27 Sep 06:55:09 07:03:07 89° 81° (E) 07:09:51 437.405
HORYU 2 27 Sep 07:03:54 07:08:15 53° 288° (WNW) 07:12:35 437.375
DOVE 4 27 Sep 07:07:29 07:10:09 16° 91° (E) 07:12:45 437.250
NOAA 15 27 Sep 07:12:42 07:17:51 48° 100° (E) 07:22:57 137.62
STRAND 1 27 Sep 07:16:29 07:21:24 51° 70° (ENE) 07:26:21 437.568
PCSat 27 Sep 07:20:02 07:24:04 21° 320° (NW) 07:28:08 145.827
Cubesat XI-IV 27 Sep 07:25:14 07:30:27 51° 100° (E) 07:35:40 437.490
CUTE-I 27 Sep 07:25:42 07:30:56 52° 100° (E) 07:36:10 437.470
GONETS M04 27 Sep 07:44:15 07:49:32 18° 75° (ENE) 07:54:49
AO-85 27 Sep 07:50:20 07:53:13 19° 249° (WSW) 07:56:00 145.980
AIST 1 27 Sep 07:50:50 07:51:06 10° 296° (WNW) 07:51:21
O/OREOS (USA 219) 27 Sep 07:55:47 08:00:11 51° 108° (ESE) 08:04:38 437.305
AO-7 27 Sep 07:56:24 08:01:00 16° 317° (NW) 08:05:36 29.400- 29.500
NOAA 18 27 Sep 07:58:34 08:04:03 79° 103° (ESE) 08:09:32 137.9125
HO-68 27 Sep 08:06:38 08:12:04 23° 91° (E) 08:17:28 435.675
Cosmos 2499 27 Sep 08:10:10 08:14:30 17° 79° (E) 08:18:48 435.465 / 435.565
DANDE 27 Sep 08:15:36 08:23:48 60° 267° (W) 08:31:35 436.750
GOMX 1 27 Sep 08:18:11 08:22:18 37° 291° (WNW) 08:26:13 467.674
LilacSat-2 27 Sep 08:24:07 08:27:26 29° 290° (WNW) 08:30:46 437.200
BRITE-PL 27 Sep 08:24:57 08:28:09 18° 300° (WNW) 08:31:11 437.365/2234.400
CINEMA 3 27 Sep 08:25:29 08:29:08 29° 96° (E) 08:32:49 145.822/145.860
PRISM 27 Sep 08:28:16 08:31:41 25° 66° (ENE) 08:35:07 437.425
COMPASS 1 27 Sep 08:35:39 08:37:47 14° 90° (E) 08:39:55 437.405
CUSAT 1 27 Sep 08:38:52 08:43:54 19° 282° (WNW) 08:48:30 437.405
DOVE 4 27 Sep 08:44:07 08:48:09 44° 289° (WNW) 08:52:05 437.250
NOAA 15 27 Sep 08:53:04 08:57:20 25° 297° (WNW) 09:01:33 137.62
STRAND 1 27 Sep 08:57:03 09:00:51 21° 268° (W) 09:04:42 437.568
CUTE 1.7 + AOD 2 27 Sep 08:57:44 09:01:56 48° 99° (E) 09:06:05 437.475
CANX-2 27 Sep 08:58:46 09:03:02 58° 100° (E) 09:07:16 2200.000
SEEDS 27 Sep 09:01:02 09:05:00 36° 97° (E) 09:08:56 437.485
BEESAT 3 27 Sep 09:03:38 09:06:10 16° 38° (NE) 09:08:42 437.485
Cubesat XI-IV 27 Sep 09:06:00 09:10:12 24° 298° (WNW) 09:14:24 437.490
CUTE-I 27 Sep 09:06:28 09:10:38 24° 298° (WNW) 09:14:48 437.470
RS-15 27 Sep 09:07:21 09:10:04 11° 270° (W) 09:12:46 29.354- 29.394
ANTELSAT 27 Sep 09:15:58 09:17:14 11° 60° (ENE) 09:18:30 437.575/2403.000
AAUSAT CUBESAT 2 27 Sep 09:26:15 09:30:10 37° 97° (E) 09:34:03 437.432
TIGRISAT 27 Sep 09:35:07 09:37:50 17° 63° (ENE) 09:40:31 435.000
GONETS M04 27 Sep 09:36:04 09:44:54 83° 96° (E) 09:53:49
O/OREOS (USA 219) 27 Sep 09:36:28 09:39:54 20° 307° (NW) 09:43:21 437.305
CUBEBUG 2 27 Sep 09:38:39 09:42:49 50° 100° (E) 09:47:04 437.445
NOAA 18 27 Sep 09:40:38 09:44:04 17° 303° (WNW) 09:47:31 137.9125
FUNcube-1 27 Sep 09:48:45 09:52:23 26° 95° (E) 09:56:03 145.935
HO-68 27 Sep 09:53:17 10:00:25 73° 290° (WNW) 10:07:31 435.675
BEESAT 2 27 Sep 09:56:52 10:00:12 24° 44° (NE) 10:03:31 435.950
UWE-3 27 Sep 09:58:34 10:02:47 55° 100° (E) 10:07:06 435.000/436.395/437.385
Cosmos 2499 27 Sep 09:59:29 10:06:40 82° 280° (W) 10:13:46 435.465 / 435.565
DANDE 27 Sep 10:01:42 10:04:55 13° 286° (WNW) 10:08:06 436.750
CINEMA 3 27 Sep 10:02:47 10:06:13 25° 292° (WNW) 10:09:41 145.822/145.860
PRISM 27 Sep 10:03:10 10:06:52 30° 263° (W) 10:10:36 437.425
COMPASS 1 27 Sep 10:09:33 10:13:42 57° 287° (WNW) 10:17:50 437.405
UNISAT 6 27 Sep 10:13:52 10:17:55 43° 71° (ENE) 10:21:57 437.425
Oscar 11 27 Sep 10:29:32 10:33:54 73° 101° (E) 10:38:15 145.826/435.025
ZACube-1 27 Sep 10:29:49 10:34:09 77° 103° (ESE) 10:38:33 437.345
CUTE 1.7 + AOD 2 27 Sep 10:34:32 10:37:24 18° 296° (WNW) 10:40:16 437.475
CANX-2 27 Sep 10:35:55 10:38:25 15° 297° (WNW) 10:40:56 2200.000
NANOSAT C BR1 27 Sep 10:36:05 10:36:37 10° 59° (ENE) 10:37:10 145.865
SEEDS 27 Sep 10:37:11 10:40:29 22° 294° (WNW) 10:43:45 437.485
BEESAT 3 27 Sep 10:40:19 10:44:17 74° 238° (WSW) 10:48:15 437.485
ANTELSAT 27 Sep 10:49:03 10:53:19 80° 257° (WSW) 10:57:37 437.575/2403.000
DELFI C3 27 Sep 10:53:20 10:57:18 53° 100° (E) 11:01:13 145.870
QB50P2 27 Sep 10:56:02 10:59:00 19° 64° (ENE) 11:01:58 145.880/145.840
HUMSAT D 27 Sep 10:57:43 11:01:29 30° 96° (E) 11:05:16 437.325/437.525
POLYITAN 1 27 Sep 10:58:17 11:01:13 19° 64° (ENE) 11:04:11 437.675
AAUSAT CUBESAT 2 27 Sep 11:02:14 11:05:25 21° 294° (WNW) 11:08:34 437.432
TIGRISAT 27 Sep 11:10:01 11:14:09 50° 260° (W) 11:18:18 435.000
JAS-2 27 Sep 11:10:34 11:16:13 31° 59° (ENE) 11:22:25 435.910
CUBEBUG 2 27 Sep 11:16:21 11:19:06 17° 296° (WNW) 11:21:53 437.445
FUNcube-1 27 Sep 11:24:50 11:28:37 31° 291° (WNW) 11:32:29 145.935
ESTCUBE 1 27 Sep 11:27:42 11:28:34 10° 88° (E) 11:29:26 437.505/2401.250
BEESAT 2 27 Sep 11:34:22 11:38:09 40° 242° (WSW) 11:41:54 435.950
GONETS M04 27 Sep 11:36:05 11:42:52 24° 298° (WNW) 11:49:43
DUCHIFAT 1 27 Sep 11:36:15 11:40:08 39° 70° (ENE) 11:44:02 145.980
UWE-3 27 Sep 11:36:16 11:38:52 16° 297° (WNW) 11:41:30 435.000/436.395/437.385
QB50P1 27 Sep 11:37:22 11:41:24 46° 72° (ENE) 11:45:26 145.935-145.965
BUGSAT 1 27 Sep 11:42:47 11:45:48 20° 65° (ENE) 11:48:48 437.445
HO-68 27 Sep 11:42:51 11:46:57 16° 310° (NW) 11:51:03 435.675
POPSAT HIP 1 27 Sep 11:50:40 11:54:50 64° 73° (ENE) 11:59:00 437.405
UNISAT 6 27 Sep 11:51:55 11:54:51 18° 268° (W) 11:57:47 437.425
Cosmos 2499 27 Sep 11:57:11 12:01:01 15° 301° (WNW) 12:04:52 435.465 / 435.565
NANOSAT C BR1 27 Sep 12:07:29 12:11:41 87° 259° (W) 12:15:54 145.865
Oscar 11 27 Sep 12:07:30 12:09:27 13° 299° (WNW) 12:11:24 145.826/435.025
ZACube-1 27 Sep 12:08:11 12:09:51 12° 299° (WNW) 12:11:34 437.345
AIST 2 27 Sep 12:12:33 12:16:03 25° 43° (NE) 12:19:32 435.215
AISAT 27 Sep 12:20:54 12:24:07 20° 93° (E) 12:27:19 437.250
PHONESAT 2.4 27 Sep 12:23:56 12:26:23 24° 163° (SSE) 12:28:50 2401.200-2431.200
DELFI C3 27 Sep 12:29:29 12:31:42 14° 297° (WNW) 12:33:54 145.870
QB50P2 27 Sep 12:30:30 12:34:30 42° 261° (W) 12:38:31 145.880/145.840
POLYITAN 1 27 Sep 12:32:44 12:36:44 42° 261° (W) 12:40:45 437.675
UKube-1 27 Sep 12:32:56 12:34:28 12° 89° (E) 12:36:01 .
HUMSAT D 27 Sep 12:33:28 12:37:00 26° 293° (WNW) 12:40:32 437.325/437.525
50 SAT 27 Sep 12:36:18 12:39:19 23° 95° (E) 12:42:18 437.505
PCSat 27 Sep 12:38:22 12:42:13 19° 39° (NE) 12:46:03 145.827
Oscar 19 27 Sep 12:44:20 12:48:25 24° 63° (ENE) 12:52:30 437.125/150
JAS-2 27 Sep 12:54:25 13:00:45 58° 261° (W) 13:07:57 435.910
DX 1 27 Sep 12:58:23 13:02:10 28° 96° (E) 13:05:55 434.975-435.025
ESTCUBE 1 27 Sep 13:01:24 13:05:58 82° 285° (WNW) 13:10:30 437.505/2401.250
VELOX 1 27 Sep 13:03:47 13:08:07 52° 100° (E) 13:12:23 145.980
CUBEBUG 1 27 Sep 13:09:50 13:14:12 80° 104° (ESE) 13:18:31 437.445
DUCHIFAT 1 27 Sep 13:12:59 13:15:59 19° 267° (W) 13:19:00 145.980
QB50P1 27 Sep 13:14:45 13:17:25 16° 268° (W) 13:20:06 145.935-145.965
BUGSAT 1 27 Sep 13:17:07 13:20:57 37° 262° (W) 13:24:46 437.445
AUBIESAT-1 27 Sep 13:20:34 13:23:27 27° 102° (ESE) 13:26:20 437.475
AO-7 27 Sep 13:23:11 13:26:55 14° 40° (NE) 13:30:40 29.400- 29.500
YUBILEINY 27 Sep 13:26:30 13:33:39 27° 64° (ENE) 13:40:44 435.215
POPSAT HIP 1 27 Sep 13:29:25 13:31:02 12° 271° (W) 13:32:38 437.405
Cosmos 2491 27 Sep 13:31:32 13:32:59 10° 69° (ENE) 13:34:26 435.465 / 435.565
Gurwin Techsat 1B 27 Sep 13:36:00 13:40:42 33° 66° (ENE) 13:45:25 435.225
ITAMSAT 1 27 Sep 13:39:10 13:40:33 11° 54° (NE) 13:41:55 435.822/435.867
TISAT 1 27 Sep 13:42:13 13:44:42 15° 92° (E) 13:47:11 437.305
AIST 2 27 Sep 13:50:42 13:54:41 42° 242° (WSW) 13:58:39 435.215
SPROUT 27 Sep 13:53:53 13:58:09 79° 285° (WNW) 14:02:24 437.525
AISAT 27 Sep 13:56:37 14:00:46 42° 290° (WNW) 14:04:53 437.250
M-CUBED/EXP-1 PRIME 27 Sep 13:57:07 14:00:25 71° 289° (WNW) 14:03:39 437.505
PHONESAT 2.4 27 Sep 13:59:23 14:02:09 38° 180° (S) 14:04:57 2401.200-2431.200
UKube-1 27 Sep 14:06:41 14:10:59 69° 286° (WNW) 14:15:16 .
50 SAT 27 Sep 14:09:45 14:12:46 24° 292° (WNW) 14:15:46 437.505
PCSat 27 Sep 14:20:55 14:26:23 90° 46° (NE) 14:31:49 145.827
Oscar 19 27 Sep 14:22:23 14:27:25 49° 260° (W) 14:32:28 437.125/150
DX 1 27 Sep 14:34:34 14:38:18 28° 293° (WNW) 14:42:00 434.975-435.025
VELOX 1 27 Sep 14:41:17 14:44:11 17° 298° (WNW) 14:47:04 145.980
ESTCUBE 1 27 Sep 14:41:20 14:42:00 10° 303° (WNW) 14:42:39 437.505/2401.250
Cosmos 2504 27 Sep 14:43:09 14:49:25 29° 68° (ENE) 14:55:58 435.465 / 435.565
SO-50 27 Sep 14:46:34 14:48:16 12° 107° (ESE) 14:49:59 436.795
CUBEBUG 1 27 Sep 14:48:18 14:49:50 12° 301° (WNW) 14:51:22 437.445
AUBIESAT-1 27 Sep 14:55:30 14:57:47 18° 299° (WNW) 15:00:04 437.475
AO-7 27 Sep 15:09:52 15:17:49 52° 63° (ENE) 15:25:47 29.400- 29.500
ITAMSAT 1 27 Sep 15:13:57 15:19:04 72° 74° (ENE) 15:24:15 435.822/435.867
Gurwin Techsat 1B 27 Sep 15:15:46 15:20:35 35° 263° (W) 15:25:27 435.225
TISAT 1 27 Sep 15:16:36 15:20:37 48° 288° (WNW) 15:24:38 437.305
ITUPSAT 1 27 Sep 15:17:14 15:21:31 31° 96° (E) 15:25:47 437.325
Cosmos 2491 27 Sep 15:19:13 15:27:44 59° 91° (E) 15:36:20 435.465 / 435.565
YUBILEINY 27 Sep 15:22:38 15:31:17 72° 267° (W) 15:39:55 435.215
SWISSCUBE 27 Sep 15:30:25 15:35:05 47° 99° (E) 15:39:42 437.505
PHONESAT 2.4 27 Sep 15:35:28 15:37:57 24° 196° (SSW) 15:40:24 2401.200-2431.200
BEESAT 27 Sep 15:43:25 15:48:10 57° 101° (E) 15:52:53 436.000
PCSat 27 Sep 16:06:30 16:08:58 13° 257° (WSW) 16:11:26 145.827
KKS-1 27 Sep 16:09:18 16:10:48 11° 89° (E) 16:12:17 437.445
AIST 1 27 Sep 16:14:19 16:17:50 24° 72° (ENE) 16:21:18
BRITE-PL 27 Sep 16:21:28 16:24:12 14° 58° (ENE) 16:26:56 437.365/2234.400
SO-50 27 Sep 16:23:12 16:28:02 88° 127° (SE) 16:32:51 436.795
O/OREOS (USA 219) 27 Sep 16:25:43 16:28:50 17° 51° (NE) 16:31:54 437.305
HORYU 2 27 Sep 16:28:13 16:31:21 19° 63° (ENE) 16:34:29 437.375
Cosmos 2504 27 Sep 16:35:58 16:43:12 59° 268° (W) 16:50:54 435.465 / 435.565
STARS 27 Sep 16:43:57 16:45:59 13° 90° (E) 16:48:00 437.465
ITUPSAT 1 27 Sep 16:55:04 16:59:19 31° 293° (WNW) 17:03:32 437.325
ITAMSAT 1 27 Sep 16:56:09 16:59:05 15° 270° (W) 17:02:02 435.822/435.867
NOAA 15 27 Sep 16:57:50 17:00:35 14° 56° (ENE) 17:03:18 137.62
AO-7 27 Sep 17:03:09 17:10:47 39° 262° (W) 17:18:27 29.400- 29.500
SWISSCUBE 27 Sep 17:08:55 17:12:33 22° 297° (WNW) 17:16:11 437.505
Cubesat XI-IV 27 Sep 17:11:53 17:14:51 15° 57° (ENE) 17:17:49 437.490
CUTE-I 27 Sep 17:12:09 17:15:09 15° 58° (ENE) 17:18:10 437.470
MOZHAYETS 4 27 Sep 17:14:25 17:19:05 89° 84° (E) 17:23:45
Cosmos 2491 27 Sep 17:17:16 17:25:03 34° 292° (WNW) 17:32:55 435.465 / 435.565
BEESAT 27 Sep 17:22:15 17:25:30 19° 299° (WNW) 17:28:46 436.000
YUBILEINY 27 Sep 17:22:23 17:26:24 14° 287° (WNW) 17:30:27 435.215
LilacSat-2 27 Sep 17:34:38 17:36:44 15° 64° (ENE) 17:38:52 437.200
KKS-1 27 Sep 17:43:26 17:47:52 73° 286° (WNW) 17:52:16 437.445
NOAA 18 27 Sep 17:47:26 17:51:54 26° 62° (ENE) 17:56:21 137.9125
GOMX 1 27 Sep 17:49:03 17:53:49 33° 68° (ENE) 17:58:23 467.674
AIST 1 27 Sep 17:51:41 17:55:26 30° 270° (W) 17:59:10
BRITE-PL 27 Sep 17:56:08 18:01:50 80° 75° (ENE) 18:07:26 437.365/2234.400
HORYU 2 27 Sep 18:03:20 18:07:34 46° 260° (W) 18:11:50 437.375
O/OREOS (USA 219) 27 Sep 18:04:07 18:08:41 64° 250° (WSW) 18:13:12 437.305
SO-50 27 Sep 18:05:47 18:09:09 19° 324° (NW) 18:12:30 436.795
DOVE 4 27 Sep 18:13:40 18:17:39 25° 67° (ENE) 18:21:28 437.250
STARS 27 Sep 18:18:25 18:22:45 63° 287° (WNW) 18:27:04 437.465
CUSAT 1 27 Sep 18:18:53 18:22:27 15° 76° (ENE) 18:26:21 437.405
CUBESAT XI-V 27 Sep 18:32:52 18:37:37 80° 104° (ESE) 18:42:17 437.345
NOAA 15 27 Sep 18:34:16 18:39:35 89° 77° (ENE) 18:44:56 137.62
HO-68 27 Sep 18:37:54 18:43:09 23° 54° (NE) 18:48:23 435.675
Cubesat XI-IV 27 Sep 18:48:54 18:54:13 85° 256° (WSW) 18:59:34 437.490
CUTE-I 27 Sep 18:49:12 18:54:30 84° 256° (WSW) 18:59:52 437.470
MOZHAYETS 4 27 Sep 18:53:52 18:55:32 12° 301° (WNW) 18:57:12
RS-15 27 Sep 19:04:41 19:13:05 24° 99° (E) 19:21:44 29.354- 29.394
LilacSat-2 27 Sep 19:07:04 19:10:41 45° 261° (W) 19:14:19 437.200
STRAND 1 27 Sep 19:26:36 19:29:33 15° 90° (E) 19:32:30 437.568
GOMX 1 27 Sep 19:26:55 19:31:49 35° 264° (W) 19:36:33 467.674
NOAA 18 27 Sep 19:27:00 19:32:16 48° 260° (W) 19:37:34 137.9125
CINEMA 3 27 Sep 19:28:32 19:32:33 34° 70° (ENE) 19:36:26 145.822/145.860
COMPASS 1 27 Sep 19:28:45 19:30:28 12° 61° (ENE) 19:32:13 437.405
BRITE-PL 27 Sep 19:37:28 19:40:50 16° 272° (W) 19:44:12 437.365/2234.400
DANDE 27 Sep 19:43:53 19:48:09 25° 82° (E) 19:53:21 436.750
GONETS M04 27 Sep 19:44:36 19:53:02 46° 72° (ENE) 20:01:19
Cosmos 2499 27 Sep 19:47:24 19:54:20 39° 72° (ENE) 20:01:43 435.465 / 435.565
DOVE 4 27 Sep 19:50:23 19:55:09 41° 262° (W) 19:59:40 437.250
CUTE 1.7 + AOD 2 27 Sep 19:51:46 19:55:45 41° 71° (ENE) 19:59:46 437.475
CANX-2 27 Sep 19:52:49 19:56:54 49° 72° (ENE) 20:01:01 2200.000
SEEDS 27 Sep 19:54:14 19:57:56 31° 69° (ENE) 20:01:42 437.485
CUSAT 1 27 Sep 19:56:41 20:02:56 81° 99° (E) 20:10:38 437.405
CUBESAT XI-V 27 Sep 20:12:06 20:14:20 13° 301° (WNW) 20:16:33 437.345
AAUSAT CUBESAT 2 27 Sep 20:17:56 20:21:35 30° 69° (ENE) 20:25:16 437.432
NOAA 15 27 Sep 20:17:59 20:20:04 12° 272° (W) 20:22:09 137.62
HO-68 27 Sep 20:22:53 20:30:04 83° 254° (WSW) 20:37:17 435.675
AO-85 27 Sep 20:27:11 20:29:04 12° 108° (ESE) 20:30:56 145.980
Cubesat XI-IV 27 Sep 20:33:38 20:35:04 11° 273° (W) 20:36:30 437.490
CUTE-I 27 Sep 20:34:07 20:35:21 11° 273° (W) 20:36:35 437.470
CUBEBUG 2 27 Sep 20:38:20 20:42:23 49° 72° (ENE) 20:46:24 437.445
FUNcube-1 27 Sep 20:46:11 20:49:29 24° 67° (ENE) 20:52:49 145.935
UWE-3 27 Sep 20:57:07 21:01:09 52° 73° (ENE) 21:05:12 435.000/436.395/437.385
ISS 27 Sep 21:00:14 21:03:13 34° 140° (SE) 21:06:13 145.825
COMPASS 1 27 Sep 21:01:18 21:05:27 71° 258° (WSW) 21:09:40 437.405
STRAND 1 27 Sep 21:04:07 21:09:15 71° 287° (WNW) 21:14:23 437.568
CINEMA 3 27 Sep 21:06:07 21:09:44 24° 265° (W) 21:13:16 145.822/145.860
RS-15 27 Sep 21:12:02 21:23:41 86° 122° (ESE) 21:36:00 29.354- 29.394
DANDE 27 Sep 21:25:07 21:30:15 52° 288° (WNW) 21:37:02 436.750
Oscar 11 27 Sep 21:25:29 21:29:45 67° 75° (ENE) 21:34:04 145.826/435.025
ZACube-1 27 Sep 21:27:05 21:31:12 71° 75° (ENE) 21:35:20 437.345
CUTE 1.7 + AOD 2 27 Sep 21:28:47 21:31:47 19° 268° (W) 21:34:47 437.475
SEEDS 27 Sep 21:30:13 21:33:40 24° 266° (W) 21:37:08 437.485
CANX-2 27 Sep 21:30:26 21:33:02 16° 269° (W) 21:35:40 2200.000
DELFI C3 27 Sep 21:40:28 21:44:10 38° 71° (ENE) 21:47:55 145.870
Cosmos 2499 27 Sep 21:40:28 21:47:30 45° 271° (W) 21:55:03 435.465 / 435.565
CUSAT 1 27 Sep 21:40:55 21:46:03 23° 301° (WNW) 21:51:51 437.405
GONETS M04 27 Sep 21:41:40 21:49:47 43° 273° (W) 21:57:50
PRISM 27 Sep 21:42:43 21:46:24 30° 96° (E) 21:50:02 437.425
HUMSAT D 27 Sep 21:50:43 21:54:06 25° 67° (ENE) 21:57:31 437.325/437.525
AAUSAT CUBESAT 2 27 Sep 21:53:40 21:57:04 24° 266° (W) 22:00:31 437.432
AO-85 27 Sep 22:03:41 22:08:54 83° 124° (SE) 22:13:46 145.980
HO-68 27 Sep 22:14:52 22:18:49 15° 273° (W) 22:22:46 435.675
CUBEBUG 2 27 Sep 22:16:52 22:19:18 15° 269° (W) 22:21:43 437.445
FUNcube-1 27 Sep 22:21:57 22:25:37 30° 264° (W) 22:29:18 145.935
ESTCUBE 1 27 Sep 22:28:15 22:30:27 13° 60° (ENE) 22:32:39 437.505/2401.250
UWE-3 27 Sep 22:35:44 22:37:58 14° 270° (W) 22:40:10 435.000/436.395/437.385
ISS 27 Sep 22:36:34 22:39:41 41° 338° (NNW) 22:42:49 145.825
ANTELSAT 27 Sep 22:39:35 22:42:42 19° 93° (E) 22:45:51 437.575/2403.000
STRAND 1 27 Sep 22:46:15 22:47:31 11° 305° (NW) 22:48:46 437.568
TIGRISAT 27 Sep 22:59:40 23:03:27 28° 96° (E) 23:07:18 435.000
Oscar 11 27 Sep 23:04:42 23:06:21 12° 271° (W) 23:08:01 145.826/435.025
ZACube-1 27 Sep 23:07:26 23:08:00 10° 272° (W) 23:08:33 437.345
M-CUBED/EXP-1 PRIME 27 Sep 23:11:29 23:14:14 18° 61° (ENE) 23:16:51 437.505
SO-50 27 Sep 23:13:32 23:17:03 21° 38° (NE) 23:20:29 436.795
50 SAT 27 Sep 23:15:27 23:17:30 15° 64° (ENE) 23:19:34 437.505
DELFI C3 27 Sep 23:16:21 23:19:09 18° 268° (W) 23:21:59 145.870
SPROUT 27 Sep 23:16:34 23:17:32 11° 59° (ENE) 23:18:29 437.525
PRISM 27 Sep 23:18:12 23:21:35 25° 294° (WNW) 23:24:57 437.425
AISAT 27 Sep 23:19:43 23:23:12 23° 65° (ENE) 23:26:41 437.250
HUMSAT D 27 Sep 23:26:07 23:29:38 28° 264° (W) 23:33:14 437.325/437.525
RS-15 27 Sep 23:26:48 23:37:45 40° 330° (NNW) 23:49:09 29.354- 29.394
UKube-1 27 Sep 23:28:57 23:31:09 14° 61° (ENE) 23:33:23 .
UNISAT 6 27 Sep 23:39:48 23:44:13 79° 102° (ESE) 23:48:43 437.425
AO-85 27 Sep 23:46:14 23:49:53 20° 322° (NW) 23:53:23 145.980
NANOSAT C BR1 27 Sep 23:51:48 23:53:50 13° 90° (E) 23:55:52 145.865
DX 1 27 Sep 23:55:17 23:59:09 31° 68° (ENE) 00:03:01 434.975-435.025
ESTCUBE 1 28 Sep 00:02:07 00:06:39 75° 259° (WSW) 00:11:13 437.505/2401.250
VELOX 1 28 Sep 00:02:17 00:06:38 56° 72° (ENE) 00:11:00 145.980
JAS-2 28 Sep 00:02:25 00:08:44 26° 89° (E) 00:14:49 435.910
CUBEBUG 1 28 Sep 00:06:52 00:11:17 80° 76° (ENE) 00:15:43 437.445
AUBIESAT-1 28 Sep 00:07:16 00:11:13 56° 68° (ENE) 00:14:54 437.475
QB50P2 28 Sep 00:13:51 00:17:24 26° 95° (E) 00:20:57 145.880/145.840
ISS 28 Sep 00:14:06 00:16:45 22° 358° (N) 00:19:25 145.825
ANTELSAT 28 Sep 00:15:25 00:19:37 45° 289° (WNW) 00:23:53 437.575/2403.000
POLYITAN 1 28 Sep 00:16:03 00:19:37 26° 95° (E) 00:23:10 437.675
BEESAT 3 28 Sep 00:34:39 00:35:58 11° 109° (ESE) 00:37:18 437.485
TISAT 1 28 Sep 00:35:45 00:38:14 15° 62° (ENE) 00:40:42 437.305
TIGRISAT 28 Sep 00:36:18 00:40:07 30° 292° (WNW) 00:44:00 435.000
M-CUBED/EXP-1 PRIME 28 Sep 00:44:34 00:48:32 43° 255° (WSW) 00:52:14 437.505
50 SAT 28 Sep 00:47:11 00:50:39 42° 261° (W) 00:54:09 437.505
SPROUT 28 Sep 00:48:31 00:52:48 86° 256° (WSW) 00:57:05 437.525
SO-50 28 Sep 00:53:25 00:57:59 67° 238° (WSW) 01:02:25 436.795
DUCHIFAT 1 28 Sep 00:53:50 00:57:59 58° 100° (E) 01:02:07 145.980
AISAT 28 Sep 00:55:17 00:59:27 39° 262° (W) 01:03:37 437.250
QB50P1 28 Sep 00:55:47 01:00:00 70° 102° (ESE) 01:04:12 145.935-145.965
BUGSAT 1 28 Sep 00:57:16 01:00:37 25° 95° (E) 01:03:58 437.445
UKube-1 28 Sep 01:02:22 01:06:40 67° 258° (WSW) 01:11:00 .
POPSAT HIP 1 28 Sep 01:09:18 01:13:32 84° 285° (WNW) 01:17:45 437.405
BEESAT 28 Sep 01:17:51 01:18:58 11° 56° (ENE) 01:20:05 436.000
UNISAT 6 28 Sep 01:18:36 01:20:21 12° 300° (WNW) 01:22:06 437.425
NANOSAT C BR1 28 Sep 01:25:48 01:29:56 58° 287° (WNW) 01:34:03 145.865
Cosmos 2491 28 Sep 01:27:42 01:35:26 32° 67° (ENE) 01:43:04 435.465 / 435.565
BEESAT 2 28 Sep 01:27:58 01:31:01 22° 113° (ESE) 01:34:06 435.950
DX 1 28 Sep 01:31:39 01:35:20 26° 265° (W) 01:39:02 434.975-435.025
VELOX 1 28 Sep 01:40:52 01:43:27 15° 269° (W) 01:46:03 145.980
AUBIESAT-1 28 Sep 01:44:05 01:45:53 13° 262° (W) 01:47:39 437.475
RS-15 28 Sep 01:44:42 01:54:51 29° 4° (N) 02:05:06 29.354- 29.394
JAS-2 28 Sep 01:46:30 01:54:22 74° 288° (WNW) 02:01:55 435.910
CUBEBUG 1 28 Sep 01:47:28 01:48:07 10° 272° (W) 01:48:48 437.445
QB50P2 28 Sep 01:49:31 01:53:11 29° 292° (WNW) 01:56:51 145.880/145.840
ISS 28 Sep 01:50:52 01:53:54 33° 18° (NNE) 01:56:55 145.825
POLYITAN 1 28 Sep 01:51:44 01:55:24 29° 292° (WNW) 01:59:04 437.675
Gurwin Techsat 1B 28 Sep 01:53:09 01:54:09 10° 86° (E) 01:55:10 435.225
BEESAT 3 28 Sep 02:09:10 02:13:03 70° 306° (NW) 02:17:00 437.485
TISAT 1 28 Sep 02:09:21 02:13:27 54° 260° (W) 02:17:34 437.305
ITUPSAT 1 28 Sep 02:25:21 02:29:51 44° 69° (ENE) 02:34:24 437.325
YUBILEINY 28 Sep 02:30:30 02:37:36 29° 81° (E) 02:44:39 435.215
DUCHIFAT 1 28 Sep 02:30:55 02:33:13 15° 298° (WNW) 02:35:31 145.980
Oscar 19 28 Sep 02:32:06 02:37:08 51° 100° (E) 02:42:07 437.125/150
BUGSAT 1 28 Sep 02:32:32 02:35:58 27° 292° (WNW) 02:39:24 437.445
QB50P1 28 Sep 02:33:26 02:35:13 12° 299° (WNW) 02:37:00 145.935-145.965
SWISSCUBE 28 Sep 02:38:14 02:42:56 66° 73° (ENE) 02:47:41 437.505
MOZHAYETS 4 28 Sep 02:43:40 02:45:38 13° 59° (ENE) 02:47:36
BEESAT 28 Sep 02:51:11 02:55:55 79° 75° (ENE) 03:00:43 436.000
BEESAT 2 28 Sep 03:04:54 03:08:37 38° 311° (NW) 03:12:23 435.950
KKS-1 28 Sep 03:08:39 03:11:06 15° 61° (ENE) 03:13:34 437.445
AO-7 28 Sep 03:12:38 03:15:41 12° 85° (E) 03:18:43 29.400- 29.500
Cosmos 2491 28 Sep 03:24:10 03:32:51 63° 268° (W) 03:41:29 435.465 / 435.565
ITAMSAT 1 28 Sep 03:25:47 03:29:50 22° 93° (E) 03:33:50 435.822/435.867
Cosmos 2504 28 Sep 03:25:51 03:30:56 21° 81° (E) 03:35:55 435.465 / 435.565
ISS 28 Sep 03:27:17 03:30:30 51° 216° (SW) 03:33:42 145.825
Gurwin Techsat 1B 28 Sep 03:29:33 03:34:55 82° 104° (ESE) 03:40:14 435.225
JAS-2 28 Sep 03:33:06 03:38:04 19° 308° (NW) 03:42:59 435.910
STARS 28 Sep 03:42:06 03:44:43 16° 62° (ENE) 03:47:20 437.465
AIST 2 28 Sep 03:49:51 03:53:14 25° 114° (ESE) 03:56:39 435.215
BEESAT 3 28 Sep 03:49:57 03:51:28 12° 326° (NNW) 03:52:59 437.485
RS-15 28 Sep 03:59:39 04:11:29 47° 37° (NE) 04:23:10 29.354- 29.394
CUBESAT XI-V 28 Sep 04:03:37 04:05:24 12° 58° (ENE) 04:07:11 437.345
ITUPSAT 1 28 Sep 04:04:13 04:07:53 22° 267° (W) 04:11:35 437.325
Oscar 19 28 Sep 04:12:09 04:16:07 23° 298° (WNW) 04:20:03 437.125/150
MOZHAYETS 4 28 Sep 04:17:34 04:22:08 81° 257° (WSW) 04:26:46
SWISSCUBE 28 Sep 04:18:35 04:21:12 15° 270° (W) 04:23:49 437.505
YUBILEINY 28 Sep 04:24:56 04:33:40 67° 282° (WNW) 04:42:25 435.215
BEESAT 28 Sep 04:32:32 04:34:17 12° 271° (W) 04:36:04 436.000
KKS-1 28 Sep 04:42:44 04:47:09 65° 258° (WSW) 04:51:35 437.445
AIST 1 28 Sep 04:46:51 04:48:59 14° 84° (E) 04:51:08
CUSAT 1 28 Sep 04:49:11 04:53:44 16° 53° (NE) 04:57:59 437.405
AO-85 28 Sep 04:54:53 04:57:41 17° 36° (NE) 05:00:23 145.980
